Location: Newark
(34.1333°N, 7.9667°W)
Time: 11:00:18
(UTC+00:00)

FO-29 - Pass Details

Date: 13 June 2023
Orbit: 800 x 1321 km, 98.5° (Epoch: 21 September)

Event Time Altitude Azimuth Distance (km) Brightness Sun altitude
Rises 03:32:41 0° 35° (NE) 3,550 14.1 -18.4°
Reaches altitude 10° 03:35:58 10° 55° (NE) 2,690 13.0 -17.9°
Maximum altitude 03:39:48 17° 95° (E) 2,303 11.9 -17.3°
Drops below altitude 10° 03:43:54 10° 134° (SE) 2,907 12.0 -16.7°
Sets 03:47:36 0° 153° (SSE) 3,964 12.5 -16.2°
